Weather History for Nampa, ID

Change the Weather History Date:

Sunday, March 10, 2013

  Actual Average (KBOI) Record (KBOI)
Temperature  
Mean Temperature 44 °F 43 °F  
Max Temperature 55 °F 53 °F 73 °F (1900)
Min Temperature 32 °F 33 °F 15 °F (1948)
Degree Days  
Heating Degree Days 22 22  
Month to date heating degree days 231  
Since 1 July heating degree days 4390  
Cooling Degree Days 0 0  
Month to date cooling degree days 0  
Year to date cooling degree days 0  
Moisture  
Dew Point 18 °F    
Average Humidity 38    
Maximum Humidity 60    
Minimum Humidity 21    
Precipitation  
Precipitation 0.00 in 0.04 in 0.60 in (1929)
Month to date precipitation 0.42  
Year to date precipitation 2.65  
Snow  
Snow 0.00 in 0.10 in 3.10 in (1917)
Month to date snowfall 0.6  
Since 1 July snowfall 18.2  
Snow Depth -    
Sea Level Pressure  
Sea Level Pressure 30.35 in    
Wind  
Wind Speed 7 mph (NNW)    
Max Wind Speed 12 mph    
Max Gust Speed -    
Visibility 10 miles    
Events      
T = Trace of Precipitation, MM = Missing Value Source: NWS Daily Summary

Daily Weather History Graph

Daily Weather History Graph

Search for Another Location

Airport:

Trip Planner

Search our weather history database for the weather conditions in past years. The results will help you decide how hot, cold, wet, or windy it might be!

Date:

Astronomy

Mar. 10, 2013 Rise Set
Actual Time 8:06 AM MDT 7:46 PM MDT
Civil Twilight 7:37 AM MDT 8:15 PM MDT
Nautical Twilight 7:04 AM MDT 8:48 PM MDT
Astronomical Twilight 6:31 AM MDT 9:22 PM MDT
Moon 7:10 AM MDT (3/10) 6:59 PM MDT (3/10)
Length of Visible Light 12h 37m
Length of Day
11h 40m
Waning Crescent, 1% of the Moon is Illuminated
Mar 10
Waning Crescent
Mar 11
New
Mar 19
First Quarter
Mar 27
Full
Apr 2
Last Quarter

Hourly Weather History & Observations

Time (MDT) Temp. Windchill Dew Point Humidity Pressure Visibility Wind Dir Wind Speed Gust Speed Precip Events Conditions
12:15 AM 37.4 °F 32.1 °F 19.4 °F 48% 30.36 in 10.0 mi WNW 6.9 mph - N/A   Clear
12:35 AM 35.6 °F 29.9 °F 17.6 °F 48% 30.37 in 10.0 mi WNW 6.9 mph - N/A   Clear
12:55 AM 37.4 °F 32.1 °F 17.6 °F 45% 30.37 in 10.0 mi WNW 6.9 mph - N/A   Clear
1:15 AM 37.4 °F 31.4 °F 17.6 °F 45% 30.37 in 10.0 mi WNW 8.1 mph - N/A   Clear
1:35 AM 37.4 °F 30.8 °F 17.6 °F 45% 30.38 in 10.0 mi WNW 9.2 mph - N/A   Clear
1:55 AM 37.4 °F 30.8 °F 17.6 °F 45% 30.38 in 10.0 mi WNW 9.2 mph - N/A   Clear
3:15 AM 35.6 °F 29.9 °F 17.6 °F 48% 30.39 in 10.0 mi WNW 6.9 mph - N/A   Clear
3:35 AM 35.6 °F 28.6 °F 17.6 °F 48% 30.40 in 10.0 mi NW 9.2 mph - N/A   Clear
3:55 AM 35.6 °F 29.2 °F 17.6 °F 48% 30.39 in 10.0 mi WNW 8.1 mph - N/A   Clear
4:15 AM 33.8 °F 27.0 °F 17.6 °F 52% 30.39 in 10.0 mi WNW 8.1 mph - N/A   Clear
4:35 AM 35.6 °F 28.6 °F 17.6 °F 48% 30.39 in 10.0 mi NW 9.2 mph - N/A   Clear
4:55 AM 37.4 °F 30.3 °F 17.6 °F 45% 30.39 in 10.0 mi WNW 10.4 mph - N/A   Clear
5:35 AM 33.8 °F 29.6 °F 17.6 °F 52% 30.40 in 10.0 mi NW 4.6 mph - N/A   Clear
5:55 AM 33.8 °F 27.7 °F 17.6 °F 52% 30.39 in 10.0 mi NW 6.9 mph - N/A   Clear
6:15 AM 35.6 °F 29.9 °F 17.6 °F 48% 30.39 in 10.0 mi NW 6.9 mph - N/A   Clear
6:35 AM 35.6 °F 29.2 °F 17.6 °F 48% 30.39 in 10.0 mi NW 8.1 mph - N/A   Clear
6:55 AM 35.6 °F 28.6 °F 17.6 °F 48% 30.40 in 10.0 mi NW 9.2 mph - N/A   Clear
7:15 AM 35.6 °F 29.2 °F 17.6 °F 48% 30.40 in 10.0 mi NNW 8.1 mph - N/A   Clear
7:35 AM 32.0 °F 26.4 °F 17.6 °F 55% 30.41 in 10.0 mi North 5.8 mph - N/A   Clear
7:55 AM 32.0 °F 26.4 °F 17.6 °F 55% 30.41 in 10.0 mi North 5.8 mph - N/A   Clear
8:15 AM 32.0 °F 24.8 °F 17.6 °F 55% 30.41 in 10.0 mi North 8.1 mph - N/A   Clear
8:35 AM 35.6 °F 29.9 °F 17.6 °F 48% 30.42 in 10.0 mi North 6.9 mph - N/A   Clear
8:55 AM 35.6 °F 29.2 °F 19.4 °F 52% 30.43 in 10.0 mi North 8.1 mph - N/A   Clear
9:15 AM 35.6 °F 29.9 °F 19.4 °F 52% 30.44 in 10.0 mi North 6.9 mph - N/A   Clear
9:35 AM 37.4 °F 31.4 °F 19.4 °F 48% 30.44 in 10.0 mi North 8.1 mph - N/A   Clear
9:55 AM 39.2 °F 33.6 °F 19.4 °F 45% 30.44 in 10.0 mi North 8.1 mph - N/A   Clear
10:15 AM 41.0 °F 35.2 °F 19.4 °F 42% 30.45 in 10.0 mi NNW 9.2 mph - N/A   Clear
10:35 AM 41.0 °F 36.4 °F 19.4 °F 42% 30.44 in 10.0 mi NW 6.9 mph - N/A   Clear
10:55 AM 42.8 °F 37.0 °F 19.4 °F 39% 30.43 in 10.0 mi North 10.4 mph - N/A   Clear
11:35 AM 46.4 °F 42.4 °F 17.6 °F 32% 30.41 in 10.0 mi NNW 8.1 mph - N/A   Clear
11:55 AM 46.4 °F 42.4 °F 17.6 °F 32% 30.41 in 10.0 mi North 8.1 mph - N/A   Clear
12:15 PM 48.2 °F - 17.6 °F 30% 30.40 in 10.0 mi NNW 6.9 mph - N/A   Clear
12:35 PM 48.2 °F - 15.8 °F 27% 30.39 in 9.0 mi NW 4.6 mph - N/A   Clear
12:55 PM 50.0 °F - 15.8 °F 26% 30.38 in 10.0 mi NNW 10.4 mph - N/A   Clear
1:15 PM 51.8 °F - 15.8 °F 24% 30.38 in 10.0 mi North 8.1 mph - N/A   Clear
1:35 PM 51.8 °F - 15.8 °F 24% 30.37 in 10.0 mi North 6.9 mph - N/A   Clear
1:55 PM 53.6 °F - 15.8 °F 22% 30.37 in 10.0 mi NW 9.2 mph - N/A   Clear
2:15 PM 53.6 °F - 15.8 °F 22% 30.36 in 10.0 mi NNW 8.1 mph - N/A   Clear
2:55 PM 53.6 °F - 14.0 °F 21% 30.33 in 10.0 mi North 11.5 mph - N/A   Clear
3:15 PM 55.4 °F - 15.8 °F 21% 30.32 in 10.0 mi NNW 8.1 mph - N/A   Clear
3:55 PM 55.4 °F - 15.8 °F 21% 30.32 in 10.0 mi West 6.9 mph - N/A   Clear
4:15 PM 55.4 °F - 15.8 °F 21% 30.31 in 10.0 mi North 4.6 mph - N/A   Clear
4:35 PM 55.4 °F - 15.8 °F 21% 30.31 in 10.0 mi NNW 6.9 mph - N/A   Clear
4:55 PM 55.4 °F - 17.6 °F 23% 30.30 in 10.0 mi NNW 5.8 mph - N/A   Clear
5:15 PM 55.4 °F - 17.6 °F 23% 30.30 in 10.0 mi North 8.1 mph - N/A   Clear
5:55 PM 55.4 °F - 17.6 °F 23% 30.29 in 10.0 mi NE 9.2 mph - N/A   Clear
6:15 PM 55.4 °F - 17.6 °F 23% 30.29 in 10.0 mi NNE 8.1 mph - N/A   Clear
6:35 PM 53.6 °F - 15.8 °F 22% 30.29 in 10.0 mi NNE 4.6 mph - N/A   Mostly Cloudy
6:55 PM 53.6 °F - 15.8 °F 22% 30.28 in 10.0 mi NNE 4.6 mph - N/A   Overcast
7:15 PM 53.6 °F - 15.8 °F 22% 30.29 in 10.0 mi NNE 3.5 mph - N/A   Mostly Cloudy
7:35 PM 53.6 °F - 14.0 °F 21% 30.28 in 10.0 mi NE 3.5 mph - N/A   Overcast
7:55 PM 51.8 °F - 14.0 °F 22% 30.29 in 10.0 mi Calm Calm - N/A   Overcast
8:15 PM 50.0 °F - 15.8 °F 26% 30.29 in 10.0 mi Calm Calm - N/A   Overcast
8:35 PM 50.0 °F - 15.8 °F 26% 30.29 in 10.0 mi WNW 3.5 mph - N/A   Overcast
8:55 PM 48.2 °F - 17.6 °F 30% 30.29 in 10.0 mi Calm Calm - N/A   Overcast
9:15 PM 48.2 °F - 17.6 °F 30% 30.29 in 10.0 mi Calm Calm - N/A   Overcast
9:35 PM 46.4 °F - 17.6 °F 32% 30.29 in 10.0 mi Calm Calm - N/A   Scattered Clouds
9:55 PM 41.0 °F - 19.4 °F 42% 30.29 in 10.0 mi Calm Calm - N/A   Partly Cloudy
10:15 PM 44.6 °F - 19.4 °F 37% 30.29 in 10.0 mi Calm Calm - N/A   Scattered Clouds
10:35 PM 44.6 °F 43.1 °F 17.6 °F 34% 30.30 in 10.0 mi NNW 3.5 mph - N/A   Partly Cloudy
10:55 PM 39.2 °F - 19.4 °F 45% 30.29 in 9.0 mi Calm Calm - N/A   Mostly Cloudy
11:15 PM 37.4 °F - 19.4 °F 48% 30.30 in 10.0 mi Calm Calm - N/A   Overcast
11:35 PM 39.2 °F - 19.4 °F 45% 30.29 in 10.0 mi Calm Calm - N/A   Overcast
11:55 PM 37.4 °F - 19.4 °F 48% 30.29 in 10.0 mi Calm Calm - N/A   Mostly Cloudy
12:35 AM 35.6 °F - 23.0 °F 60% 30.29 in 10.0 mi Calm Calm - N/A   Overcast
12:55 AM 37.4 °F - 23.0 °F 56% 30.28 in 8.0 mi Calm Calm - N/A   Overcast